AKST,Max TemperatureF,Mean TemperatureF,Min TemperatureF,Max Dew PointF,MeanDew PointF,Min DewpointF,Max Humidity, Mean Humidity, Min Humidity, Max Sea Level PressureIn, Mean Sea Level PressureIn, Min Sea Level PressureIn, Max VisibilityMiles, Mean VisibilityMiles, Min VisibilityMiles, Max Wind SpeedMPH, Mean Wind SpeedMPH, Max Gust SpeedMPH,PrecipitationIn, CloudCover, Events, WindDirDegrees
2011-12-1,11,2,-7,7,-2,-11,92,84,78,29.90,29.75,29.45,10,8,2,9,3,,0.01,6,Snow,33
2011-12-2,25,13,0,21,12,0,93,86,78,30.31,29.97,29.82,10,5,1,16,4,22,0.05,7,Snow,241
2011-12-3,30,14,-2,25,12,-2,92,83,64,30.36,30.06,29.72,10,10,7,10,5,,0.00,6,,25
2011-12-4,47,37,26,33,29,21,100,83,69,29.66,29.51,29.31,10,7,2,25,8,37,0.03,7,Rain-Snow,262
2011-12-5,30,24,17,18,11,5,86,68,52,30.25,29.98,29.71,10,5,0,26,14,38,0.04,7,Snow,248
2011-12-6,14,2,-10,5,-2,-14,86,75,43,30.53,30.46,30.27,10,6,3,14,5,,T,6,Snow,336
2011-12-7,21,10,-1,15,7,-3,84,79,73,30.41,30.06,29.85,10,10,8,8,4,,0.00,6,,36
2011-12-8,22,11,0,17,6,-1,95,88,75,29.85,29.79,29.75,10,9,5,4,0,,T,5,Snow,70
2011-12-9,20,15,10,18,15,8,93,91,86,30.03,29.88,29.76,10,3,1,5,0,,0.19,8,Snow,35
2011-12-10,27,15,3,22,15,6,100,88,66,30.07,29.86,29.52,10,10,4,10,4,,T,7,Snow,29
2011-12-11,32,22,12,28,21,12,93,85,67,29.66,29.30,28.88,10,8,0,10,4,,0.03,8,Fog-Snow,43
2011-12-12,31,27,23,24,21,18,93,82,69,29.73,29.33,28.91,10,5,2,14,7,29,0.04,7,Snow,237
2011-12-13,26,19,11,21,17,13,100,92,85,29.81,29.77,29.73,10,7,2,8,3,,0.02,7,Snow,60
2011-12-14,16,2,-12,12,-6,-15,96,87,79,29.85,29.79,29.72,10,6,0,7,0,,0.00,6,Fog,40
2011-12-15,18,2,-14,13,3,-17,92,86,79,29.77,29.45,29.32,10,10,10,8,3,,0.00,6,,38
2011-12-16,12,2,-8,9,-2,-12,92,88,83,29.52,29.48,29.44,10,10,10,4,1,,T,5,Snow,170
2011-12-17,10,0,-11,5,-8,-14,92,85,79,29.56,29.51,29.44,10,10,9,5,0,,0.00,3,,45
2011-12-18,37,21,5,23,17,3,92,68,41,29.43,29.04,28.84,10,9,2,14,5,22,T,6,Snow,42
2011-12-19,30,18,5,22,15,5,96,89,72,29.60,29.43,29.06,10,8,1,7,1,,0.03,7,Snow,116
2011-12-20,27,19,10,18,15,12,96,87,71,29.77,29.62,29.35,10,9,3,9,2,,0.01,7,Snow,27
2011-12-21,29,15,0,20,11,0,95,87,72,29.66,29.48,29.26,10,8,0,15,5,20,0.06,7,Snow,253
2011-12-22,11,4,-3,9,1,-6,100,88,78,29.65,29.38,29.13,10,5,0,6,0,,0.04,7,Fog-Snow,188
2011-12-23,11,-2,-15,9,2,-16,92,87,82,29.75,29.45,29.16,8,4,1,7,2,,0.14,7,Snow,198
2011-12-24,-11,-19,-27,-16,-27,-31,91,79,74,29.81,29.75,29.60,10,9,4,5,1,,T,2,Fog,325
2011-12-25,-2,-12,-23,-6,-13,-27,85,80,73,29.66,29.50,29.39,10,5,0,5,1,,0.20,7,Snow,190
2011-12-26,-2,-13,-24,-7,-22,-28,87,80,77,29.68,29.49,29.24,10,8,5,4,1,,T,6,Snow,108
2011-12-27,-8,-17,-26,-12,-19,-31,86,79,74,29.39,29.28,29.19,10,8,2,4,1,,T,6,Snow,190
2011-12-28,-13,-19,-26,-18,-23,-29,82,78,74,29.40,29.34,29.28,10,5,2,4,0,,0.03,7,Fog-Snow,20
2011-12-29,-12,-23,-35,-17,-27,-36,83,79,69,29.65,29.57,29.41,10,6,2,4,0,,0.02,5,Fog-Snow,160
2011-12-30,-22,-29,-36,-29,-31,-34,81,74,69,29.87,29.72,29.62,6,4,1,4,0,,0.01,7,Snow,65
2011-12-31,-22,-29,-36,-27,-32,-36,77,75,69,30.18,30.08,29.82,10,9,4,0,0,,T,6,Fog-Snow,-1